Regional Weather Roundup
Issued by NWS

Home | Current Version | Previous Version | Text Only | Print | Product List | Glossary Off
Versions: 1 2 3 4 5 6 7 8 9 10 11 12 13 14 15 16 17 18 19 20 21 22 23 24 25 26 27 28 29 30 31 32 33 34 35 36 37 38 39 40 41 42 43 44 45 46 47 48 49 50

000
ASUS43 KMPX 021610
RWRMN
WEATHER ROUNDUP FOR MINNESOTA
NATIONAL WEATHER SERVICE TWIN CITIES/CHANHASSEN MN
1100 AM CDT TUE SEP 02 2014


NOTE: "FAIR" INDICATES FEW OR NO CLOUDS BELOW 12,000 FEET WITH NO
SIGNIFICANT WEATHER AND/OR OBSTRUCTIONS TO VISIBILITY. N/A MEANS
CURRENT SKY AND/OR WEATHER CONDITIONS ARE NOT AVAILABLE.

MNZ060>063-068>070-021700-
   Twin Cities Metro

CITY           SKY/WX    TMP DP  RH WIND       PRES   REMARKS
TWIN CITIES    SUNNY     72  56  57 VRB3      29.90R
ST PAUL        SUNNY     72  56  57 CALM      29.90R
CRYSTAL        SUNNY     72  56  57 VRB3      29.89R
BLAINE         SUNNY     72  57  60 CALM        N/A
LAKEVILLE      SUNNY     70  57  64 SW5       29.91R
EDEN PRAIRIE   SUNNY     72  57  59 CALM      29.89S
SOUTH ST PAUL  SUNNY     71  55  58 SW5       29.90R
LAKE ELMO      FAIR      70  57  64 W3        29.90S
$$
MNZ001>005-007-008-013>017-022>024-027-028-021700-
   Northwest Minnesota

CITY           SKY/WX    TMP DP  RH WIND       PRES   REMARKS
BEMIDJI        SUNNY     68  52  56 SW8       29.81S
HALLOCK        PTSUNNY   61  55  82 SE6       29.76S
ROSEAU         MOSUNNY   64  55  72 SW5       29.78R
WARROAD        MOSUNNY   63  55  77 W6        29.77S
THIEF RVR FALL CLOUDY    61  54  77 S6        29.80S
CROOKSTON      PTSUNNY   63  55  77 SW10      29.82R
FOSSTON        MOSUNNY   63  55  77 S10       29.82S
DETROIT LAKES  MOSUNNY   66  54  63 SW10      29.86S
MOORHEAD       MOSUNNY   66  61  82 S5        29.83F
PARK RAPIDS    SUNNY     69  52  54 W12       29.84F
MAHNOMEN       FAIR      65  55  71 SW8       29.82F
$$
MNZ006-009>011-018-025>026-021700-
   North Central Minnesota

CITY           SKY/WX    TMP DP  RH WIND       PRES   REMARKS
BAUDETTE       PTSUNNY   64  53  67 SW7       29.77R
FLAG ISLAND    MOSUNNY   64  54  68 SW6       29.74S
INTL FALLS     SUNNY     65  55  70 W8        29.77S
WASKISH        MOSUNNY   66  57  72 SW8       29.80R
BIG FORK       MOSUNNY   70  54  56 SW8       29.80F
LONGVILLE      SUNNY     68  55  64 SW3       29.83F
GRAND RAPIDS   MOSUNNY   66  52  59 W9G17     29.83F
CRANE LAKE     SUNNY     64  52  63 SW5       29.79F
ORR            SUNNY     68  48  49 W8        29.77S
COOK           MOSUNNY   66  54  63 SW7       29.80F
WALKER         FAIR      67  53  59 W6        29.82F
$$
MNZ012-019>021-037-021700-
   Northeast Minnesota

CITY           SKY/WX    TMP DP  RH WIND       PRES   REMARKS
DULUTH         MOSUNNY   70  52  52 W8        29.84F
ELY            SUNNY     64  52  63 S9        29.81S
HIBBING        PTSUNNY   71  53  52 W8        29.82S
EVELETH        SUNNY     64  54  68 SW8       29.83S
DULUTH HARBOR  SUNNY     70  57  64 SW9       29.83S
TWO HARBORS    SUNNY     70  54  56 W8        29.81S
SILVER BAY     SUNNY     70  57  64 SW6       29.80S
GRAND MARAIS     N/A     66  58  75 W5        29.78R
G MARAIS ARPRT SUNNY     66  48  52 W9        29.81S
$$
MNZ029>031-032-039>041-046>048-054>057-064-021700-
   West Central Minnesota

CITY           SKY/WX    TMP DP  RH WIND       PRES   REMARKS
FERGUS FALLS   SUNNY     68  52  56 SW6       29.87S
WHEATON        SUNNY     70  55  60 SW7       29.88F
MORRIS         SUNNY     72  57  60 SW6       29.88S
ALEXANDRIA     SUNNY     69  53  56 W8        29.90S
ELBOW LAKE     FAIR      67  56  65 SW6       29.88S
WADENA         SUNNY     68  55  64 SW7       29.86S
GLENWOOD       SUNNY     70  55  60 SW10      29.90S
APPLETON       SUNNY     72  55  56 SW5       29.89S
BENSON         SUNNY     70  57  64 SW5       29.89S
ORTONVILLE     SUNNY     72  57  60 SW5       29.89S
MADISON        SUNNY     73  59  60 SW5       29.89S
WILLMAR        FAIR      70  57  64 S3        29.92S
$$
MNZ033>034-036-042>043-049>051-058-059-021700-
   Central Minnesota

CITY           SKY/WX    TMP DP  RH WIND       PRES   REMARKS
ST CLOUD       SUNNY     74  53  48 SW7       29.89R
SAUK CENTRE    FAIR      70  55  60 W10       29.89F
PAYNESVILLE    HVY RAIN  68  51  55 S6        29.91R
AITKIN         MOSUNNY   72  57  60 SW6       29.84S
PINE RIVER     SUNNY     68  55  64 SW7       29.88F
BRAINERD       SUNNY     67  55  65 W7        29.87S
STAPLES        SUNNY     70  54  56 SW8       29.86S
LONG PRAIRIE   FAIR      70  55  60 SW7       29.89S
LITTLE FALLS   SUNNY     70  52  52 W7        29.88S
LITCHFIELD     SUNNY     72  61  68 CALM      29.91S
BUFFALO        SUNNY     69  56  63 SW3       29.91R
MAPLE LAKE     SUNNY     72  60  66 W3        29.91R
$$
MNZ037-044-045-052-053-021700-
   East Central Minnesota

CITY           SKY/WX    TMP DP  RH WIND       PRES   REMARKS
PRINCETON      SUNNY     72  55  56 W6        29.88S
MORA           SUNNY     70  54  56 SW3       29.89S
CAMBRIDGE      SUNNY     72  57  60 S3        29.87S
RUSH CITY      SUNNY     69  56  62 W3        29.89S
MOOSE LAKE     SUNNY     70  54  56 W5        29.84S
HINCKLEY       FAIR      70  57  64 W6        29.87R
CLOQUET        SUNNY     70  50  49 W9        29.85S
MCGREGOR       MOSUNNY   68  54  60 SW7       29.86S
$$
MNZ071>073-080-081-089-090-097-098-021700-
   Southwest Minnesota

CITY           SKY/WX    TMP DP  RH WIND       PRES   REMARKS
MONTEVIDEO     SUNNY     73  63  68 W5        29.91S
GRANITE FALLS  SUNNY     70  58  64 S3        29.92S
CANBY          SUNNY     72  54  53 SW5       29.92S
MARSHALL       SUNNY     73  54  49 S6        29.91S
REDWOOD FALLS  SUNNY     70  58  65 SW6       29.91S
OLIVIA         SUNNY     70  55  60 SW5       29.90F
PIPESTONE      SUNNY     68  57  68 CALM      29.95S
WINDOM         SUNNY     70  57  64 W3        29.94S
WORTHINGTON    SUNNY     68  57  68 SW5       29.97R
JACKSON        SUNNY     70  55  60 W6        29.96S
TRACY          SUNNY     71  57  59 SW3       29.94S
SLAYTON        SUNNY     69  55  62 CALM      29.95S
$$
MNZ065>067-074>077-082>085-091>093-021700-
   South Central Minnesota

CITY           SKY/WX    TMP DP  RH WIND       PRES   REMARKS
MANKATO        SUNNY     68  57  68 SW6       29.92S
NEW ULM        SUNNY     70  61  73 SW3       29.92S
ST JAMES       SUNNY     72  57  60 W3        29.94S
FAIRMONT       SUNNY     70  55  60 W6        29.95R
GLENCOE        SUNNY     70  56  61 SW3       29.91S
FARIBAULT      SUNNY     73  57  56 SW6       29.92F
OWATONNA       SUNNY     70  57  64 W7        29.93S
WASECA         SUNNY     66  54  63 SW7       29.95S
ALBERT LEA     SUNNY     72  57  60 SW7       29.93F
$$
MNZ078>079-086>088-094>096-021700-
   Southeast Minnesota

CITY           SKY/WX    TMP DP  RH WIND       PRES   REMARKS
ROCHESTER      SUNNY     70  57  63 W8        29.93S
RED WING       SUNNY     72  59  64 W6        29.89R
STANTON        SUNNY     71  59  64 W7        29.90S
DODGE CENTER   SUNNY     70  61  73 W12       29.93S
WINONA         SUNNY     72  61  68 W3        29.90F
AUSTIN         SUNNY     72  55  56 W10       29.93S
PRESTON        SUNNY     69  61  74 CALM      29.93S
$$
ABBREVIATIONS USED IN REMARKS
   TC - TEMPERATURES IN CELSIUS
  WCI - WIND CHILL INDEX
   HX - HEAT INDEX
  VSB - VISIBILITY
$$


USA.gov is the U.S. government's official web portal to all federal, state and local government web resources and services.